Date String (YYYY-MM-DD hh:mm:ss) UTC,Instrument flags,Ambient pressure (hPa),Sample flow (lpm),Bypass flow (lpm),Sample temperature (°C),Ambient temperature (°C),ASC tube jacket temperature (°C),LED temperature (°C),Box temperature (°C),Sample RH (%),Span deviation,Mass concentration (μg/m³),Mass concentration (μg/m³),Mass concentration (μg/m³)
DateTimeUTC,F1_M11,P_M11,Q1_M11,Q2_M11,T1_M11,T2_M11,T3_M11,T4_M11,T5_M11,U1_M11,ZSPAN_M11,X0_M11,X2_M11,X1_M11
2022-11-25 14:00:00,,0834.0,5.00,0.00,22.0,20.5,00.0,31.0,23.8,12.0,0000.0,0000.34,0000.23,0000.19
2022-11-25 14:01:00,,0834.0,5.00,0.00,22.0,20.8,00.0,31.0,23.8,12.0,0000.0,0000.34,0000.24,0000.19
2022-11-25 14:02:00,,0834.0,5.00,0.00,22.1,21.8,00.0,30.9,24.0,12.0,0000.0,0000.35,0000.23,0000.19
2022-11-25 14:03:00,,0834.0,4.99,0.00,22.2,22.3,00.0,30.9,24.2,12.0,0000.0,0000.35,0000.23,0000.19
2022-11-25 14:04:00,,0834.0,5.00,0.00,22.2,22.0,00.0,31.0,24.2,12.0,0000.0,0000.36,0000.23,0000.19
2022-11-25 14:05:00,,0834.0,5.00,0.00,22.2,21.7,00.0,31.0,24.1,12.1,0000.0,0000.29,0000.21,0000.19
2022-11-25 14:06:00,,0834.0,5.00,0.00,22.2,21.4,00.0,31.1,24.1,12.2,0000.0,0000.29,0000.22,0000.20
2022-11-25 14:07:00,,0834.0,5.00,0.00,22.2,21.3,00.0,31.1,24.1,12.1,0000.0,0000.31,0000.23,0000.21
2022-11-25 14:08:00,,0833.9,5.00,0.00,22.2,21.2,00.0,31.1,24.1,12.2,0000.0,0000.31,0000.24,0000.21
2022-11-25 14:09:00,,0833.9,5.00,0.00,22.2,21.1,00.0,31.1,24.0,12.2,0000.0,0000.31,0000.24,0000.21
2022-11-25 14:10:00,,0833.9,5.02,0.00,22.2,21.0,00.0,31.1,24.0,12.2,0000.0,0000.31,0000.24,0000.21
2022-11-25 14:11:00,,0833.9,5.00,0.00,22.2,20.9,00.0,31.1,24.0,12.2,0000.0,0000.33,0000.25,0000.22
2022-11-25 14:12:00,,0833.8,4.99,0.00,22.1,20.9,00.0,31.1,24.0,12.2,0000.0,0000.36,0000.27,0000.23
2022-11-25 14:13:00,,0833.9,4.99,0.00,22.1,20.8,00.0,31.1,24.0,12.2,0000.0,0000.36,0000.27,0000.24
2022-11-25 14:14:00,,0833.9,5.02,0.00,22.1,20.8,00.0,31.1,24.0,12.2,0000.0,0000.35,0000.27,0000.24
2022-11-25 14:15:00,,0833.9,5.00,0.00,22.1,20.8,00.0,31.1,23.9,12.2,0000.0,0000.35,0000.27,0000.25
2022-11-25 14:16:00,,0833.9,4.99,0.00,22.1,20.8,00.0,31.1,23.9,12.2,0000.0,0000.37,0000.28,0000.25
2022-11-25 14:17:00,,0833.9,5.00,0.00,22.1,20.8,00.0,31.1,23.9,12.2,0000.0,0000.37,0000.28,0000.25
2022-11-25 14:18:00,,0833.8,5.00,0.00,22.1,20.8,00.0,31.1,23.9,12.4,0000.0,0000.38,0000.28,0000.25
2022-11-25 14:19:00,,0833.9,5.00,0.00,22.1,20.7,00.0,31.0,23.9,12.3,0000.0,0000.41,0000.29,0000.25
2022-11-25 14:20:00,,0833.9,5.01,0.00,22.1,20.6,00.0,31.0,23.9,12.4,0000.0,0000.41,0000.29,0000.25
2022-11-25 14:21:00,,0834.0,5.00,0.00,22.0,20.6,00.0,31.0,23.9,12.5,0000.0,0000.44,0000.31,0000.25
2022-11-25 14:22:00,,0833.9,5.00,0.00,22.0,20.6,00.0,31.0,23.8,12.6,0000.0,0000.47,0000.33,0000.25
2022-11-25 14:23:00,,0833.9,5.01,0.00,22.0,20.6,00.0,31.0,23.8,12.7,0000.0,0000.45,0000.32,0000.25
2022-11-25 14:24:00,,0834.0,4.99,0.00,22.0,20.6,00.0,31.0,23.8,12.8,0000.0,0000.43,0000.31,0000.25
2022-11-25 14:25:00,,0833.9,4.99,0.00,22.0,20.7,00.0,31.0,23.8,12.8,0000.0,0000.45,0000.32,0000.25
2022-11-25 14:26:00,,0834.0,4.99,0.00,22.0,20.7,00.0,31.0,23.9,12.9,0000.0,0000.49,0000.33,0000.25
2022-11-25 14:27:00,,0834.0,5.01,0.00,22.0,20.7,00.0,31.0,23.9,12.9,0000.0,0000.49,0000.33,0000.24
2022-11-25 14:28:00,,0834.0,5.01,0.00,22.0,20.8,00.0,31.0,23.8,12.9,0000.0,0000.48,0000.33,0000.25
2022-11-25 14:29:00,,0834.0,5.00,0.00,22.0,20.8,00.0,31.0,23.9,12.8,0000.0,0000.48,0000.33,0000.25
2022-11-25 14:30:00,,0834.0,5.00,0.00,22.0,20.8,00.0,31.0,23.9,12.9,0000.0,0000.47,0000.32,0000.25
2022-11-25 14:31:00,,0834.0,5.00,0.00,22.0,20.8,00.0,31.0,23.9,12.9,0000.0,0000.46,0000.33,0000.25
2022-11-25 14:32:00,,0834.0,5.00,0.00,22.0,20.8,00.0,31.0,23.9,12.8,0000.0,0000.45,0000.32,0000.25
2022-11-25 14:33:00,,0834.0,5.01,0.00,22.0,20.8,00.0,31.0,23.9,12.9,0000.0,0000.41,0000.30,0000.25
2022-11-25 14:34:00,,0834.0,5.00,0.00,22.1,20.8,00.0,31.0,23.9,12.9,0000.0,0000.41,0000.29,0000.24
2022-11-25 14:35:00,,0834.0,5.00,0.00,22.1,20.9,00.0,31.0,23.9,12.9,0000.0,0000.41,0000.29,0000.24
2022-11-25 14:36:00,,0834.0,5.00,0.00,22.1,20.9,00.0,31.0,23.9,12.9,0000.0,0000.44,0000.30,0000.24
2022-11-25 14:37:00,,0834.0,5.00,0.00,22.1,20.9,00.0,31.0,23.9,13.1,0000.0,0000.39,0000.29,0000.24
2022-11-25 14:38:00,,0834.0,5.00,0.00,22.1,20.9,00.0,31.0,24.0,13.1,0000.0,0000.37,0000.27,0000.23
2022-11-25 14:39:00,,0834.0,5.00,0.00,22.1,20.9,00.0,31.0,24.0,13.2,0000.0,0000.37,0000.27,0000.23
2022-11-25 14:40:00,,0834.0,5.00,0.00,22.1,20.9,00.0,31.0,24.0,13.4,0000.0,0000.36,0000.27,0000.23
2022-11-25 14:41:00,,0834.0,5.00,0.00,22.1,21.0,00.0,31.0,24.0,13.4,0000.0,0000.35,0000.27,0000.23
2022-11-25 14:42:00,,0834.0,5.01,0.00,22.1,21.0,00.0,31.0,24.0,13.4,0000.0,0000.34,0000.26,0000.23
2022-11-25 14:43:00,,0833.9,5.01,0.00,22.1,21.0,00.0,31.0,24.0,13.5,0000.0,0000.34,0000.26,0000.22
2022-11-25 14:44:00,,0833.9,5.01,0.00,22.2,21.0,00.0,31.0,24.0,13.7,0000.0,0000.38,0000.27,0000.23
2022-11-25 14:45:00,,0833.9,4.99,0.00,22.2,20.9,00.0,31.0,24.0,13.7,0000.0,0000.40,0000.28,0000.23
2022-11-25 14:46:00,,0833.9,4.99,0.00,22.2,20.9,00.0,31.0,24.0,13.5,0000.0,0000.40,0000.28,0000.23
2022-11-25 14:47:00,,0833.9,5.00,0.00,22.2,20.9,00.0,31.0,24.0,13.5,0000.0,0000.38,0000.27,0000.23
2022-11-25 14:48:00,,0833.9,4.99,0.00,22.2,20.9,00.0,31.0,23.9,13.7,0000.0,0000.38,0000.27,0000.24
2022-11-25 14:49:00,,0833.9,5.00,0.00,22.2,20.9,00.0,31.0,23.9,13.7,0000.0,0000.40,0000.29,0000.25
2022-11-25 14:50:00,,0833.9,5.00,0.00,22.2,20.9,00.0,31.0,24.0,13.9,0000.0,0000.43,0000.30,0000.25
2022-11-25 14:51:00,,0833.9,5.01,0.00,22.2,20.9,00.0,31.0,24.0,13.9,0000.0,0000.46,0000.31,0000.26
2022-11-25 14:52:00,,0833.9,5.00,0.00,22.2,20.9,00.0,31.0,24.0,13.9,0000.0,0000.47,0000.32,0000.26
2022-11-25 14:53:00,,0833.9,5.00,0.00,22.2,20.9,00.0,31.1,24.0,13.9,0000.0,0000.51,0000.33,0000.26
2022-11-25 14:54:00,,0833.9,5.00,0.00,22.2,20.9,00.0,31.1,23.9,13.8,0000.0,0000.57,0000.36,0000.26
2022-11-25 14:55:00,,0833.9,4.99,0.00,22.2,20.9,00.0,31.1,24.0,13.9,0000.0,0000.53,0000.34,0000.26
2022-11-25 14:56:00,,0833.9,5.00,0.00,22.2,21.0,00.0,31.1,24.0,13.8,0000.0,0000.55,0000.35,0000.26
2022-11-25 14:57:00,,0833.9,5.01,0.00,22.2,21.0,00.0,31.1,24.0,13.8,0000.0,0000.55,0000.35,0000.26
2022-11-25 14:58:00,,0833.9,5.00,0.00,22.2,21.0,00.0,31.1,23.9,13.7,0000.0,0000.56,0000.36,0000.27
2022-11-25 14:59:00,,0833.9,5.00,0.00,22.2,21.0,00.0,31.1,23.9,13.6,0000.0,0000.56,0000.36,0000.27
